Weather Roundup
Issued by NWS

Home | Current Version | Previous Version | Text Only | Print | Product List | Glossary On
Versions: 1 2 3 4 5 6 7 8 9 10 11 12 13 14 15 16 17 18 19 20 21 22 23 24 25 26 27 28 29 30 31 32 33 34 35 36 37 38 39 40 41 42 43 44 45 46 47 48 49 50
000
NZUS93 KARX 170059
HRRWXR

CURRENT HOURLY OBSERVATIONS ACROSS
MUCH OF THE UPPER MISSISSIPPI VALLEY
NATIONAL WEATHER SERVICE LA CROSSE WI
700 PM CST TUE DEC 16 2014


...SOUTHEAST MINNESOTA...


CITY           SKY/WX    TMP DP  RH WIND       PRES   REMARKS
ROCHESTER      CLOUDY    19  14  81 NW16      30.18S WCI   4
ROCHESTER/MAYO CLOUDY    19  13  79 NW16      30.19R WCI   4
WINONA         CLOUDY    25  19  80 NW12      30.20R WCI  14
AUSTIN         FLURRIES  18  14  86 NW13      30.21R WCI   4
ALBERT LEA     LGT SNOW  18  14  86 NW13G18   30.23R WCI   4
DODGE CENTER   FLURRIES  19  16  86 CALM      30.19R
PRESTON        FLURRIES  18  14  83 NW12G20   30.18R WCI   6
OWATONNA       CLOUDY    18  12  79 NW13      30.22R WCI   4
FARIBAULT      CLOUDY    19  16  86 NW10      30.24R WCI   8
$$

...ELSEWHERE IN MINNESOTA...


CITY           SKY/WX    TMP DP  RH WIND       PRES   REMARKS
MINNEAPOLIS    CLOUDY    20  13  74 NW13      30.24R WCI   7
INTNL FALLS    FLURRIES  13   7  77 N9        30.24S WCI   1
DULUTH         FLURRIES  17  11  77 NW12      30.14R WCI   4
RED WING       LGT SNOW  21  18  86 NW6       30.22R WCI  14
REDWOOD FALLS  CLEAR     13   8  81 NW10      30.29S WCI   0
MANKATO        CLOUDY    18   9  68 NW15      30.25S WCI   3
WORTHINGTON    CLEAR     10   9  92 W6        30.29R WCI   1
FAIRMONT       CLOUDY    16   9  73 NW15      30.27R WCI   1
$$

...SOUTHWEST WISCONSIN...


CITY           SKY/WX    TMP DP  RH WIND       PRES   REMARKS
LA CROSSE      CLOUDY    25  17  72 NW17      30.17R WCI  12
PRAIRIE DU CHI CLOUDY    25  17  73 NW12G20   30.18R WCI  14
BOSCOBEL       CLOUDY    26  19  74 NW13      30.16R WCI  15
LONE ROCK      NOT AVBL
PLATTEVILLE    CLOUDY    27  23  85 NW18      30.13R WCI  14
FORT MC COY    CLOUDY    25  18  76 NW14G20   30.15R WCI  13
CAMP DOUGLAS   CLOUDY    25  25 100 NW16      30.10R WCI  12
VIROQUA        CLOUDY    22  22  99 NW15      30.12R WCI   9
WIS DELLS      NOT AVBL
$$

...ELSEWHERE IN WISCONSIN...


CITY           SKY/WX    TMP DP  RH WIND       PRES   REMARKS
MILWAUKEE      CLOUDY    33  24  69 NW22G32   30.00R WCI  21
MADISON        CLOUDY    29  21  72 NW16G25   30.06R WCI  17
GREEN BAY      LGT SNOW  30  27  88 NW16      29.99R VSB 1   WCI  19
EAU CLAIRE     NOT AVBL
BLACK RVR FLS  CLOUDY    26  19  74 NW9       30.14R WCI  16
MEDFORD        CLOUDY    23  19  84 NW10      30.05R WCI  13
WAUSAU         CLOUDY    26  18  71 NW15      30.02R WCI  14
WIS RAPIDS     CLOUDY    27  19  72 NW16      30.08R WCI  15
MARSHFIELD     CLOUDY    26  19  74 NW14      30.06R WCI  14
RICE LAKE      CLOUDY    22  17  83 NW8G16    30.17S WCI  12
$$

...NORTHEAST IOWA...


CITY           SKY/WX    TMP DP  RH WIND       PRES   REMARKS
DECORAH        FLURRIES  21  16  79 N17       30.16R WCI   7
MASON CITY     CLOUDY    16  11  80 NW20      30.26R WCI  -1
CHARLES CITY   LGT SNOW  19  14  79 NW17G24   30.22R WCI   4
OELWEIN        CLOUDY    21  16  79 NW20G25   30.21R WCI   6
$$

...ELSEWHERE IN IOWA...


CITY           SKY/WX    TMP DP  RH WIND       PRES   REMARKS
DES MOINES     CLOUDY    25  17  72 NW20      30.30R WCI  11
IOWA CITY      CLOUDY    21  15  78 NW13G26   30.26R WCI   9
FORT DODGE     CLOUDY    16   7  67 NW9       30.31S WCI   4
$$

...NORTHERN ILLINOIS...


CITY           SKY/WX    TMP DP  RH WIND       PRES   REMARKS
CHICAGO-OHARE  CLOUDY    34  27  75 NW16G26   30.03R WCI  24
CHICAGO-MIDWAY FLURRIES  36  30  79 NW13G26   30.04R WCI  27
MOLINE         CLOUDY    26  19  74 NW23G30   30.20R WCI  11
ROCKFORD       CLOUDY    31  23  72 NW16G24   30.10R WCI  20
PEORIA         CLOUDY    29  23  78 W12G22    30.19R WCI  19
$$

NOTE: "FAIR" INDICATES FEW OR NO CLOUDS BELOW 12,000 FEET WITH NO
SIGNIFICANT WEATHER AND/OR OBSTRUCTIONS TO VISIBILITY. WIND
SPEEDS ARE IN MILES-PER-HOUR.



USA.gov is the U.S. government's official web portal to all federal, state and local government web resources and services.